| time (UTC) | temp F | wind direction | speed MPH | gust MPH | rain 1hr in | rain 24hr in | rain mn in | humidity % | barometer mb |
| 20260905113048 | 71 | 30 | 2.0 | 8.0 | 0.00 | 0.00 | 0.00 | 93 | 1013.4 |
| 20260905111603 | 71 | 32 | 3.0 | 8.0 | 0.00 | 0.00 | 0.00 | 93 | 1013.0 |
| 20260905110042 | 71 | 24 | 3.0 | 11.0 | 0.00 | 0.00 | 0.00 | 93 | 1013.0 |
| 20260905104541 | 71 | 28 | 5.0 | 11.0 | 0.00 | 0.00 | 0.00 | 93 | 1012.9 |
| 20260905103039 | 70 | 360 | 3.0 | 8.0 | 0.00 | 0.00 | 0.00 | 93 | 1013.1 |
| 20260905101549 | 70 | 38 | 3.0 | 9.0 | 0.00 | 0.00 | 0.00 | 93 | 1013.0 |
| 20260905100043 | 70 | 13 | 4.0 | 9.0 | 0.00 | 0.00 | 0.00 | 93 | 1013.1 |
| 20260905094539 | 70 | 9 | 4.0 | 11.0 | 0.00 | 0.00 | 0.00 | 93 | 1013.1 |
| 20260905093039 | 71 | 19 | 1.0 | 4.0 | 0.00 | 0.00 | 0.00 | 93 | 1012.9 |
| 20260905091539 | 71 | 351 | 1.0 | 3.0 | 0.00 | 0.00 | 0.00 | 93 | 1012.7 |
| 20260905090039 | 71 | 0 | 0.0 | 2.0 | 0.00 | 0.00 | 0.00 | 93 | 1012.7 |
| 20260905084548 | 71 | 351 | 0.0 | 3.0 | 0.00 | 0.00 | 0.00 | 93 | 1012.7 |
| 20260905083038 | 71 | 351 | 1.0 | 3.0 | 0.00 | 0.00 | 0.00 | 93 | 1012.5 |
| 20260905081538 | 71 | 351 | 1.0 | 4.0 | 0.00 | 0.00 | 0.00 | 93 | 1012.4 |
| 20260905080048 | 71 | 350 | 3.0 | 5.0 | 0.00 | 0.00 | 0.00 | 92 | 1012.4 |
| 20260905074543 | 71 | 184 | 0.0 | 3.0 | 0.00 | 0.00 | 0.00 | 92 | 1012.2 |
| 20260905073046 | 71 | 184 | 1.0 | 4.0 | 0.00 | 0.00 | 0.00 | 92 | 1012.1 |
| 20260905071540 | 71 | 0 | 0.0 | 0.0 | 0.00 | 0.00 | 0.00 | 92 | 1012.3 |
| 20260905070040 | 72 | 0 | 0.0 | 0.0 | 0.00 | 0.00 | 0.00 | 92 | 1012.5 |
| 20260905064539 | 72 | 0 | 0.0 | 0.0 | 0.00 | 0.00 | 0.00 | 92 | 1012.7 |
| 20260905063036 | 72 | 0 | 0.0 | 0.0 | 0.00 | 0.00 | 0.00 | 91 | 1012.5 |
| 20260905061542 | 72 | 26 | 0.0 | 4.0 | 0.00 | 0.00 | 0.00 | 91 | 1012.7 |
| 20260905060039 | 72 | 0 | 0.0 | 0.0 | 0.00 | 0.00 | 0.00 | 90 | 1012.8 |
| 20260905054539 | 72 | 0 | 0.0 | 1.0 | 0.00 | 0.00 | 0.00 | 90 | 1012.8 |
| 20260905053042 | 73 | 0 | 0.0 | 0.0 | 0.00 | 0.00 | 0.00 | 90 | 1012.9 |
| 20260905051544 | 73 | 0 | 0.0 | 2.0 | 0.00 | 0.00 | 0.00 | 90 | 1013.0 |
| 20260905050039 | 73 | 0 | 0.0 | 2.0 | 0.00 | 0.00 | 0.00 | 90 | 1012.9 |
| 20260905044541 | 74 | 198 | 0.0 | 1.0 | 0.00 | 0.00 | 0.00 | 89 | 1012.9 |
| 20260905043042 | 74 | 0 | 0.0 | 2.0 | 0.00 | 0.00 | 0.00 | 89 | 1012.9 |
| 20260905041541 | 74 | 0 | 0.0 | 2.0 | 0.00 | 0.00 | 0.00 | 90 | 1013.2 |
| 20260905040042 | 74 | 198 | 2.0 | 4.0 | 0.00 | 0.00 | 0.00 | 90 | 1013.1 |
| 20260905034543 | 74 | 124 | 2.0 | 8.0 | 0.00 | 0.00 | 0.00 | 90 | 1013.1 |
| 20260905033107 | 74 | 167 | 5.0 | 10.0 | 0.00 | 0.00 | 0.00 | 90 | 1013.4 |
| 20260905031552 | 74 | 0 | 0.0 | 3.0 | 0.00 | 0.00 | 0.00 | 90 | 1012.9 |
| 20260905030051 | 74 | 73 | 1.0 | 3.0 | 0.00 | 0.00 | 0.00 | 90 | 1013.4 |
| 20260905024539 | 74 | 0 | 0.0 | 5.0 | 0.00 | 0.00 | 0.00 | 89 | 1013.6 |
| 20260905023050 | 74 | 17 | 1.0 | 4.0 | 0.00 | 0.00 | 0.00 | 89 | 1013.5 |
| 20260905021541 | 74 | 0 | 0.0 | 5.0 | 0.00 | 0.00 | 0.00 | 89 | 1013.4 |
| 20260905020038 | 74 | 95 | 2.0 | 4.0 | 0.00 | 0.00 | 0.00 | 89 | 1013.5 |
| 20260905014539 | 74 | 24 | 3.0 | 8.0 | 0.00 | 0.00 | 0.00 | 89 | 1013.4 |
| 20260905013043 | 75 | 32 | 1.0 | 5.0 | 0.00 | 0.00 | 0.00 | 88 | 1013.5 |
| 20260905011537 | 75 | 65 | 3.0 | 7.0 | 0.00 | 0.00 | 0.00 | 87 | 1013.3 |
| 20260905010043 | 76 | 30 | 3.0 | 9.0 | 0.00 | 0.00 | 0.00 | 86 | 1012.6 |
| 20260905004540 | 76 | 56 | 2.0 | 7.0 | 0.00 | 0.00 | 0.00 | 85 | 1012.3 |
| 20260905003039 | 77 | 0 | 3.0 | 9.0 | 0.00 | 0.00 | 0.00 | 83 | 1012.4 |
| 20260905001539 | 78 | 51 | 4.0 | 10.0 | 0.00 | 0.00 | 0.00 | 80 | 1012.6 |
| 20260905000039 | 80 | 28 | 2.0 | 8.0 | 0.00 | 0.00 | 0.00 | 77 | 1012.4 |
| 20260904234539 | 82 | 34 | 2.0 | 9.0 | 0.00 | 0.00 | 0.00 | 74 | 1012.0 |
| 20260904233046 | 84 | 37 | 3.0 | 13.0 | 0.00 | 0.00 | 0.00 | 72 | 1012.0 |
| 20260904231543 | 87 | 35 | 2.0 | 10.0 | 0.00 | 0.00 | 0.00 | 69 | 1011.8 |
| 20260904224538 | 89 | 0 | 1.0 | 4.0 | 0.00 | 0.00 | 0.00 | 71 | 1011.6 |
| 20260904223043 | 89 | 256 | 1.0 | 5.0 | 0.00 | 0.00 | 0.00 | 68 | 1011.5 |
| 20260904221544 | 88 | 223 | 2.0 | 5.0 | 0.00 | 0.00 | 0.00 | 69 | 1011.6 |
| 20260904220045 | 88 | 0 | 2.0 | 6.0 | 0.00 | 0.00 | 0.00 | 71 | 1011.4 |
| 20260904214539 | 88 | 325 | 2.0 | 7.0 | 0.00 | 0.00 | 0.00 | 70 | 1011.3 |
| 20260904213043 | 88 | 265 | 3.0 | 14.0 | 0.00 | 0.00 | 0.00 | 69 | 1011.2 |
| 20260904211539 | 89 | 209 | 4.0 | 17.0 | 0.00 | 0.00 | 0.00 | 68 | 1011.0 |
| 20260904210040 | 89 | 185 | 5.0 | 11.0 | 0.00 | 0.00 | 0.00 | 71 | 1011.1 |
| 20260904204538 | 89 | 245 | 3.0 | 13.0 | 0.00 | 0.00 | 0.00 | 70 | 1011.4 |
| 20260904203039 | 89 | 188 | 4.0 | 10.0 | 0.00 | 0.00 | 0.00 | 67 | 1011.6 |
| 20260904201536 | 87 | 178 | 3.0 | 10.0 | 0.00 | 0.00 | 0.00 | 71 | 1011.8 |
| 20260904200052 | 86 | 181 | 4.0 | 10.0 | 0.00 | 0.00 | 0.00 | 72 | 1012.0 |
| 20260904194536 | 86 | 190 | 5.0 | 15.0 | 0.00 | 0.00 | 0.00 | 71 | 1011.9 |
| 20260904193041 | 85 | 196 | 7.0 | 19.0 | 0.00 | 0.00 | 0.00 | 73 | 1012.0 |
| 20260904191542 | 82 | 137 | 4.0 | 16.0 | 0.00 | 0.00 | 0.00 | 79 | 1012.3 |
| 20260904190035 | 81 | 158 | 7.0 | 16.0 | 0.00 | 0.00 | 0.00 | 80 | 1012.6 |
| 20260904184537 | 80 | 181 | 6.0 | 20.0 | 0.00 | 0.00 | 0.00 | 78 | 1013.2 |
| 20260904183053 | 80 | 175 | 7.0 | 19.0 | 0.00 | 0.00 | 0.00 | 82 | 1013.2 |
| 20260904181542 | 79 | 164 | 8.0 | 17.0 | 0.00 | 0.00 | 0.00 | 87 | 1013.3 |
| 20260904180037 | 76 | 153 | 9.0 | 16.0 | 0.00 | 0.00 | 0.00 | 91 | 1013.5 |
| 20260904174538 | 73 | 181 | 9.0 | 16.0 | 0.00 | 0.03 | 0.00 | 92 | 1013.2 |
| 20260904173039 | 72 | 181 | 8.0 | 17.0 | 0.00 | 0.03 | 0.00 | 91 | 1013.5 |
| 20260904171545 | 73 | 143 | 8.0 | 20.0 | 0.00 | 0.03 | 0.00 | 90 | 1014.3 |
| 20260904170041 | 73 | 201 | 4.0 | 17.0 | 0.00 | 0.03 | 0.00 | 88 | 1015.1 |
| 20260904164547 | 73 | 205 | 6.0 | 13.0 | 0.00 | 0.08 | 0.00 | 87 | 1016.0 |
| 20260904163037 | 74 | 70 | 3.0 | 10.0 | 0.00 | 0.08 | 0.00 | 89 | 1016.1 |
| 20260904161540 | 73 | 104 | 6.0 | 16.0 | 0.00 | 0.08 | 0.00 | 89 | 1015.8 |
| 20260904160040 | 73 | 40 | 4.0 | 13.0 | 0.00 | 0.08 | 0.00 | 89 | 1016.3 |
| 20260904154539 | 73 | 138 | 4.0 | 16.0 | 0.00 | 0.08 | 0.00 | 89 | 1016.1 |
| 20260904153057 | 73 | 91 | 4.0 | 12.0 | 0.00 | 0.08 | 0.00 | 88 | 1016.2 |
| 20260904151534 | 73 | 45 | 5.0 | 13.0 | 0.00 | 0.08 | 0.00 | 88 | 1016.8 |
| 20260904150045 | 73 | 19 | 9.0 | 17.0 | 0.00 | 0.08 | 0.00 | 88 | 1017.2 |
| 20260904144536 | 74 | 33 | 7.0 | 17.0 | 0.00 | 0.08 | 0.00 | 90 | 1016.6 |
| 20260904143037 | 74 | 13 | 5.0 | 12.0 | 0.00 | 0.08 | 0.00 | 89 | 1016.7 |
| 20260904141539 | 74 | 27 | 5.0 | 12.0 | 0.00 | 0.08 | 0.00 | 89 | 1015.5 |
| 20260904140040 | 74 | 86 | 4.0 | 18.0 | 0.00 | 0.08 | 0.00 | 90 | 1015.2 |
| 20260904134539 | 73 | 57 | 7.0 | 14.0 | 0.00 | 0.08 | 0.00 | 92 | 1015.3 |
| 20260904133040 | 72 | 32 | 5.0 | 13.0 | 0.00 | 0.08 | 0.00 | 93 | 1015.2 |
| 20260904131546 | 72 | 5 | 4.0 | 11.0 | 0.00 | 0.08 | 0.00 | 93 | 1015.2 |
| 20260904130039 | 71 | 26 | 4.0 | 8.0 | 0.00 | 0.08 | 0.00 | 93 | 1015.1 |
| 20260904124539 | 71 | 53 | 3.0 | 9.0 | 0.00 | 0.08 | 0.00 | 93 | 1014.7 |
| 20260904123039 | 70 | 44 | 2.0 | 8.0 | 0.00 | 0.08 | 0.00 | 93 | 1014.6 |
| 20260904121539 | 70 | 35 | 1.0 | 5.0 | 0.00 | 0.08 | 0.00 | 93 | 1014.3 |
| 20260904120040 | 69 | 27 | 1.0 | 3.0 | 0.00 | 0.08 | 0.00 | 93 | 1013.6 |
| 20260904114537 | 69 | 5 | 1.0 | 4.0 | 0.00 | 0.08 | 0.00 | 93 | 1013.5 |